Station,Date,Leq 24Hr,Leq min,Leq max,Count Hr
ns01,1/1/2023,73.4,69.2,75.7,24
ns01,1/2/2023,72.4,66.9,74.7,24
ns01,1/3/2023,73.3,67.9,76.6,24
ns01,1/4/2023,73.4,67.9,75.9,24
ns01,1/5/2023,73.8,68.9,76.1,24
ns01,1/6/2023,73.7,69.1,75.8,24
ns01,1/7/2023,73.8,70.3,76.8,24
ns01,1/8/2023,73,70.1,74.2,24
ns01,1/9/2023,73.6,68.8,76.3,24
ns01,1/10/2023,74.2,68.7,79.6,24
ns01,1/11/2023,74.5,68.5,81,24
ns01,1/12/2023,73.6,69,75.9,24
ns01,1/13/2023,74.4,69.9,78.7,24
ns01,1/14/2023,73.7,70.9,75.1,24
ns01,1/15/2023,73.1,70.4,74.7,24
ns01,1/16/2023,74.2,68.8,77.5,24
ns01,1/17/2023,73.9,69.4,76.1,24
ns01,1/18/2023,74.1,68.9,76.8,24
ns01,1/19/2023,73.8,69.7,76.7,24
ns01,1/20/2023,74.1,70.2,75.8,24
ns01,1/21/2023,73.5,70.7,74.9,24
ns01,1/22/2023,72.9,70.5,75.1,24
ns01,1/23/2023,73.6,69.1,77.2,24
ns01,1/24/2023,73.5,68.4,75.6,24
ns01,1/25/2023,74.1,69.2,76.3,24
ns01,1/26/2023,73.4,67.9,75.4,24
ns01,1/27/2023,74.1,69.7,77.3,24
ns01,1/28/2023,73.6,70.8,76,24
ns01,1/29/2023,73.3,70.4,76,24
ns01,1/30/2023,74.1,68,77.2,24
ns01,1/31/2023,73.9,69.1,75.8,24
ns01,2/1/2023,73.9,69.1,77.7,24
ns01,2/2/2023,73.5,69,75.2,24
ns01,2/3/2023,73.7,68.5,76.6,24
ns01,2/4/2023,73.4,69,75.3,24
ns01,2/5/2023,73.1,70,77,24
ns01,2/6/2023,73.6,68.8,75.3,24
ns01,2/7/2023,73.6,68.7,75.6,24
ns01,2/8/2023,73.9,68.6,78.4,24
ns01,2/9/2023,74.2,69,78,24
ns01,2/10/2023,73.7,69.5,75.7,24
ns01,2/11/2023,74.2,69.7,78.2,24
ns01,2/12/2023,73.3,70.1,75,24
ns01,2/13/2023,74.1,69.8,76.2,24
ns01,2/14/2023,74.7,70.3,77.7,24
ns01,2/15/2023,74,68.6,77.1,24
ns01,2/16/2023,74.2,69.5,78.8,24
ns01,2/17/2023,74.2,69.2,77,24
ns01,2/18/2023,73.9,69.5,77.8,24
ns01,2/19/2023,72.8,69.8,74.6,24
ns01,2/20/2023,74.3,69.7,77,24
ns01,2/21/2023,73.8,69.1,76,24
ns01,2/22/2023,74.1,69.4,76.1,24
ns01,2/23/2023,73.5,68.9,75.5,24
ns01,2/24/2023,73.9,69.7,75.7,24
ns01,2/25/2023,74,70.9,77.7,24
ns01,2/26/2023,73.4,70.2,75.5,24
ns01,2/27/2023,73.8,69.2,75.7,24
ns01,2/28/2023,74,68.3,76,24
ns01,3/1/2023,73.6,69.5,75.7,24
ns01,3/2/2023,73.5,69.5,75.6,24
ns01,3/3/2023,73.7,69.5,75.2,24
ns01,3/4/2023,73.6,69.3,74.9,24
ns01,3/5/2023,72.6,70.9,73.5,24
ns01,3/6/2023,73,68.9,74.4,24
ns01,3/7/2023,73.5,69.1,75.5,24
ns01,3/8/2023,73.8,68.4,77.2,24
ns01,3/9/2023,73.5,68.5,75.9,24
ns01,3/10/2023,73.7,69.8,76.4,24
ns01,3/11/2023,73.5,70.2,75.1,24
ns01,3/12/2023,73.1,70.5,76.3,24
ns01,3/13/2023,73.7,69.1,76.6,24
ns01,3/14/2023,73.9,68.2,76.1,24
ns01,3/15/2023,73.9,69.2,78.3,24
ns01,3/16/2023,73.6,68.6,75.8,24
ns01,3/17/2023,73.5,69.5,75.6,24
ns01,3/18/2023,73.4,70,75.5,24
ns01,3/19/2023,72.7,69.6,73.9,24
ns01,3/20/2023,73.7,69.3,75.5,24
ns01,3/21/2023,73.7,70.3,75.9,24
ns01,3/22/2023,73.7,68.7,77.8,24
ns01,3/23/2023,73.8,68.7,77.9,24
ns01,3/24/2023,73.8,70.2,76.2,24
ns01,3/25/2023,73.5,70.2,75.4,24
ns01,3/26/2023,73.2,69.5,79.2,24
ns01,3/27/2023,73.4,69.2,75.1,24
ns01,3/28/2023,73.7,69.6,75.8,24
ns01,3/29/2023,73.6,69.9,78.1,24
ns01,3/30/2023,73.8,68.4,78.5,24
ns01,3/31/2023,74,68.7,76.2,24
ns01,4/1/2023,73.6,69.9,77.3,24
ns01,4/2/2023,73.1,70.3,76.3,24
ns01,4/3/2023,73.7,68.3,78.6,24
ns01,4/4/2023,73.5,68.8,77.9,24
ns01,4/5/2023,73.5,69.7,75.5,24
ns01,4/6/2023,73.2,67.2,76.4,24
ns01,4/7/2023,73.5,70,75,24
ns01,4/8/2023,73.7,69.5,77.1,24
ns01,4/9/2023,72.5,69.2,73.9,24
ns01,4/10/2023,73.6,69.6,77.8,24
ns01,4/11/2023,73.5,69.4,76.6,24
ns01,4/12/2023,73.9,69.5,78.2,24
ns01,4/13/2023,74.6,69.6,78.7,24
ns01,4/14/2023,74.1,71.1,76.5,24
ns01,4/15/2023,74.3,71,77,24
ns01,4/16/2023,72.8,70.8,75.5,24
ns01,4/17/2023,72.5,66.7,74.1,24
ns01,4/18/2023,73.3,69.3,75,24
ns01,4/19/2023,73.1,67.7,75.4,24
ns01,4/20/2023,73,67.8,74.7,24
ns01,4/21/2023,73.4,69.2,75.5,24
ns01,4/22/2023,73,67.8,74.8,24
ns01,4/23/2023,72.1,68.8,73.6,24
ns01,4/24/2023,73,68.7,75.2,24
ns01,4/25/2023,73.5,69.4,78.1,24
ns01,4/26/2023,73.3,68.4,75.3,24
ns01,4/27/2023,73.4,69.1,74.9,24
ns01,4/28/2023,73.4,68.5,74.8,24
ns01,4/29/2023,73.2,68.8,77,24
ns01,4/30/2023,72.6,69.8,74.5,24
ns01,5/1/2023,72.5,68.3,74.4,24
ns01,5/2/2023,73.2,68.8,74.9,24
ns01,5/3/2023,74,70.1,78.6,24
ns01,5/4/2023,72.8,70.3,75.2,24
ns01,5/5/2023,72.8,68.8,74.4,24
ns01,5/6/2023,73.1,69,76.9,24
ns01,5/7/2023,72.3,68.7,74.8,24
ns01,5/8/2023,73.5,69.2,76.4,24
ns01,5/9/2023,73.5,68.6,78.7,24
ns01,5/10/2023,74.3,68.5,82.6,24
ns01,5/11/2023,73.6,69.9,76.6,24
ns01,5/12/2023,73.5,69.1,75.1,24
ns01,5/13/2023,73.2,68.4,76.5,24
ns01,5/14/2023,72,69.1,73.5,24
ns01,5/15/2023,73.2,67.9,75.8,24
ns01,5/16/2023,73.3,68.5,77.5,24
ns01,5/17/2023,72.6,69.2,74.6,24
ns01,5/18/2023,74,68.6,78.5,24
ns01,5/19/2023,73.7,68.6,77,24
ns01,5/20/2023,73,69.3,74.7,24
ns01,5/21/2023,72.5,68.7,74.3,24
ns01,5/22/2023,74.3,68.2,81.2,24
ns01,5/23/2023,73.4,68,75.7,24
ns01,5/24/2023,73.3,68.3,75.6,24
ns01,5/25/2023,74,68.6,77.4,24
ns01,5/26/2023,74.3,69.4,76.3,24
ns01,5/27/2023,73.7,70,75.7,24
ns01,5/28/2023,73.2,70.3,75.5,24
ns01,5/29/2023,73.9,69.6,76.4,24
ns01,5/30/2023,74.2,68.6,77.5,24
ns01,5/31/2023,74.1,69.1,76.3,24
ns01,6/1/2023,74.5,70.3,76.9,24
ns01,6/2/2023,74.3,70.9,76.6,24
ns01,6/3/2023,74.1,71.5,76.6,24
ns01,6/4/2023,73.9,70.4,78.3,24
ns01,6/5/2023,74.3,69.8,78.2,24
ns01,6/6/2023,74.5,70.4,76.4,24
ns01,6/7/2023,74.4,70.2,76.9,24
ns01,6/8/2023,74.5,69.2,76.5,24
ns01,6/9/2023,74.4,70.1,77.2,24
ns01,6/10/2023,74,71.4,75.8,24
ns01,6/11/2023,73.8,72.3,75,24
ns01,6/12/2023,74.1,69.7,76.9,24
ns01,6/13/2023,74.5,70.4,76.3,24
ns01,6/14/2023,74.3,70.2,76.7,24
ns01,6/15/2023,74.5,71,77.2,24
ns01,6/16/2023,74.5,70.5,77.3,24
ns01,6/17/2023,74.3,70,79.8,24
ns01,6/18/2023,73.5,69.2,78.7,24
ns01,6/19/2023,74.3,69.1,78.3,24
ns01,6/20/2023,74.1,69.6,76.9,24
ns01,6/21/2023,74.4,70.7,76.4,24
ns01,6/22/2023,74.3,70.1,77.3,24
ns01,6/23/2023,74.2,71.4,76.2,24
ns01,6/24/2023,75,71.4,81.3,24
ns01,6/25/2023,73.9,71.1,77.3,24
ns01,6/26/2023,74.3,69.5,77.2,24
ns01,6/27/2023,74.3,68.9,79.6,24
ns01,6/28/2023,74.1,69.6,76.5,24
ns01,6/29/2023,74.4,71.8,76.9,24
ns01,6/30/2023,75,70.5,81.6,24
ns01,7/1/2023,74.3,71.3,75.7,24
ns01,7/2/2023,73.7,71.3,76.7,24
ns01,7/3/2023,74.1,68.9,76.5,24
ns01,7/4/2023,74.7,71.5,78.2,24
ns01,7/5/2023,73.9,69.5,76.6,24
ns01,7/6/2023,74.5,70.7,76.3,24
ns01,7/7/2023,74.8,70.9,78.2,24
ns01,7/8/2023,74.2,70.6,76.5,24
ns01,7/9/2023,73.7,71,78.7,24
ns01,7/10/2023,74.5,69.6,76.5,24
ns01,7/11/2023,74.7,70.4,78.9,24
ns01,7/12/2023,74.3,70.3,76.4,24
ns01,7/13/2023,74.3,70.2,76.3,24
ns01,7/14/2023,74.6,70,77.1,24
ns01,7/15/2023,74.2,71,76,24
ns01,7/16/2023,74,71.5,78.3,24
ns01,7/17/2023,75.8,71.1,81,24
ns01,7/18/2023,74.8,70.5,80.2,24
ns01,7/19/2023,74.5,70.4,78.2,24
ns01,7/20/2023,73.9,70.7,76.1,24
ns01,7/21/2023,74.6,69.1,76.4,24
ns01,7/22/2023,74.1,70.9,78.6,24
ns01,7/23/2023,73.6,70.3,76.3,24
ns01,7/24/2023,74.2,68.7,76.3,24
ns01,7/25/2023,74.3,70.3,76.5,24
ns01,7/26/2023,74.2,70.2,76.4,24
ns01,7/27/2023,74.5,70,76.8,24
ns01,7/28/2023,75.1,71.3,80.3,24
ns01,7/29/2023,74.3,70.8,76.8,24
ns01,7/30/2023,74,72.1,77.7,24
ns01,7/31/2023,74.4,70.7,77.4,24
ns01,8/1/2023,74.1,71.8,76.2,24
ns01,8/2/2023,73.9,70.1,75.6,24
ns01,8/3/2023,74.2,70.7,76.7,24
ns01,8/4/2023,74.8,70,78.2,24
ns01,8/5/2023,74.6,71.8,77.5,24
ns01,8/6/2023,73.8,72.3,75.8,24
ns01,8/7/2023,74.5,70.3,77,24
ns01,8/8/2023,74.6,70,78.5,24
ns01,8/9/2023,74.3,70.1,76.1,24
ns01,8/10/2023,74.7,71,76.8,24
ns01,8/11/2023,75,71.8,77.3,24
ns01,8/12/2023,75.9,72,80.3,24
ns01,8/13/2023,74.3,72,78.6,24
ns01,8/14/2023,74.1,71.4,76,24
ns01,8/15/2023,74.9,71.5,78.6,24
ns01,8/16/2023,75.4,71.4,81.7,24
ns01,8/17/2023,74.5,70.8,77.8,24
ns01,8/18/2023,74.6,71.1,76.3,24
ns01,8/19/2023,75.1,72.1,78.9,24
ns01,8/20/2023,73.7,70.2,75.7,24
ns01,8/21/2023,74.3,69.4,77.1,24
ns01,8/22/2023,74.5,68.8,77.9,24
ns01,8/23/2023,74.5,70.5,77.4,24
ns01,8/24/2023,74.5,70.4,76.9,24
ns01,8/25/2023,74.2,70,76.9,24
ns01,8/26/2023,74.5,71,77.3,24
ns01,8/27/2023,73.9,72.3,76.2,24
ns01,8/28/2023,74.6,71.3,78.2,24
ns01,8/29/2023,74.4,70.6,77,24
ns01,8/30/2023,74.6,70.5,77.8,24
ns01,8/31/2023,74.4,69.6,76.9,24
ns01,9/1/2023,74,68.9,76.3,24
ns01,9/2/2023,75.2,72.5,79.5,24
ns01,9/3/2023,73.7,71.7,75.9,24
ns01,9/4/2023,74.2,68.7,77.2,24
ns01,9/5/2023,74.9,70.3,78.8,24
ns01,9/6/2023,74.4,70.2,76,24
ns01,9/7/2023,74.8,70.9,78.6,24
ns01,9/8/2023,74.7,70.2,78.9,24
ns01,9/9/2023,74.1,71,76.2,24
ns01,9/10/2023,73.6,70.2,77.4,24
ns01,9/11/2023,74.1,68.6,76.5,24
ns01,9/12/2023,74.4,69.9,76.3,24
ns01,9/13/2023,74.5,70.9,77.1,24
ns01,9/14/2023,74.5,70.4,76.9,24
ns01,9/15/2023,74.5,69.6,77.8,24
ns01,9/16/2023,74.1,71.9,76.5,24
ns01,9/17/2023,74.1,71.2,78.4,24
ns01,9/18/2023,74.4,69.2,77.9,24
ns01,9/19/2023,74.2,71.3,76.8,24
ns01,9/20/2023,74.4,71.2,76.9,24
ns01,9/21/2023,74.5,70,76.9,24
ns01,9/22/2023,75.1,69.1,78.7,24
ns01,9/23/2023,74.9,70.7,78.7,24
ns01,9/24/2023,73.7,71,75.1,24
ns01,9/25/2023,74.5,70.5,77.8,24
ns01,9/26/2023,74.6,70,79.5,24
ns01,9/27/2023,74.4,69,77.2,24
ns01,9/28/2023,74.3,70.3,77.2,24
ns01,9/29/2023,74.5,69.8,77.3,24
ns01,9/30/2023,74.1,70.8,75.9,24
ns01,10/1/2023,73.6,70.7,75.7,24
ns01,10/2/2023,74.6,71.1,77.6,24
ns01,10/3/2023,74.7,70.2,79.5,24
ns01,10/4/2023,74.3,68.7,76.7,24
ns01,10/5/2023,74.5,70.5,77,24
ns01,10/6/2023,74.6,70.3,76.6,24
ns01,10/7/2023,74.2,71.2,76.2,24
ns01,10/8/2023,74.1,72.5,77.3,24
ns01,10/9/2023,74.6,70.7,77.7,24
ns01,10/10/2023,74.5,71.1,77.3,24
ns01,10/11/2023,74.3,70.8,76.3,24
ns01,10/12/2023,75.2,71.7,80.6,24
ns01,10/13/2023,74.4,71.4,76,24
ns01,10/14/2023,75.2,72.6,80.7,24
ns01,10/15/2023,74.8,72.4,79.5,24
ns01,10/16/2023,74.6,69.9,76.1,24
ns01,10/17/2023,75.7,70.6,80.2,24
ns01,10/18/2023,74.5,70.7,76.4,24
ns01,10/19/2023,75.5,71.1,78,24
ns01,10/20/2023,75.2,70.3,78.7,24
ns01,10/21/2023,75.3,71.9,80.5,24
ns01,10/22/2023,73.8,70.6,75.7,24
ns01,10/23/2023,76.4,71.2,82.8,24
ns01,10/24/2023,74.8,70.7,76.3,24
ns01,10/25/2023,74.7,71.3,76.8,24
ns01,10/26/2023,74.7,71.3,76.8,24
ns01,10/27/2023,74.4,71.2,76.2,24
ns01,10/28/2023,74.8,72.1,76.3,24
ns01,10/29/2023,74,71.1,76.4,24
ns01,10/30/2023,74.4,71,76.7,24
ns01,10/31/2023,74.6,70.2,77,24
ns01,11/1/2023,74.9,72.4,77.5,24
ns01,11/2/2023,74.9,70.4,77.1,24
ns01,11/3/2023,74.8,69.7,76.2,24
ns01,11/4/2023,74.2,71.5,76.3,24
ns01,11/5/2023,74.1,71.5,77.4,24
ns01,11/6/2023,74.6,72,76.1,24
ns01,11/7/2023,74.1,68.9,76.7,24
ns01,11/8/2023,73.3,69.4,75.7,24
ns01,11/9/2023,74.6,69.6,77.5,24
ns01,11/10/2023,74.5,69.4,79.9,24
ns01,11/11/2023,72.2,62.1,75.6,24
ns01,11/12/2023,72.3,55.4,78.2,24
ns01,11/13/2023,74.3,70.3,76.4,24
ns01,11/14/2023,74.3,70,77.8,24
ns01,11/15/2023,74.4,70.9,76.1,24
ns01,11/16/2023,74.2,56.5,76.3,24
ns01,11/17/2023,74.8,54.6,78.9,24
ns01,11/18/2023,74.5,72,76.7,24
ns01,11/19/2023,74.3,71.8,76.7,24
ns01,11/20/2023,74.8,70.6,77.2,24
ns01,11/21/2023,74.6,71,76.2,24
ns01,11/22/2023,75.4,70.9,80.8,24
ns01,11/23/2023,74.6,70.4,79.6,24
ns01,11/24/2023,74.3,71.3,77.7,24
ns01,11/25/2023,74.2,71.4,76.2,24
ns01,11/26/2023,74.2,72.5,76.5,24
ns01,11/27/2023,75.4,70.8,77.8,24
ns01,11/28/2023,75.5,71.5,79.4,24
ns01,11/29/2023,74.7,70.7,78,24
ns01,11/30/2023,74.9,71.8,76.8,24
ns01,12/1/2023,74.9,71.3,76.5,24
ns01,12/2/2023,73.4,60.1,77.4,24
ns01,12/3/2023,74.3,72.7,75.9,24
ns01,12/4/2023,74,53.6,78.1,24
ns01,12/5/2023,76,73.3,81.2,24
ns01,12/6/2023,75.7,72,81,24
ns01,12/7/2023,75.2,70.3,78.5,24
ns01,12/8/2023,75.5,71.7,79.3,24
ns01,12/9/2023,75.4,72.3,78.2,24
ns01,12/10/2023,75.4,72,79.2,24
ns01,12/11/2023,74.2,71.6,77.3,24
ns01,12/12/2023,74.9,72.2,77.1,24
ns01,12/13/2023,75,70,78.9,24
ns01,12/14/2023,75,71.2,79.4,24
ns01,12/15/2023,74.9,70.8,77.5,24
ns01,12/16/2023,75,71.7,78.8,24
ns01,12/17/2023,74,72.5,75.6,24
ns01,12/18/2023,74.4,69.8,76.2,24
ns01,12/19/2023,74.6,70.9,76.5,24
ns01,12/20/2023,74.4,71.4,76.2,24
ns01,12/21/2023,75.4,70.9,79.2,24
ns01,12/22/2023,75.3,71.1,78.8,24
ns01,12/23/2023,75.3,70.8,77.5,24
ns01,12/24/2023,74.8,71.6,78.6,24
ns01,12/25/2023,75.5,71.8,77.9,24
ns01,12/26/2023,75.6,72.5,80.1,24
ns01,12/27/2023,75.5,70.3,78.2,24
ns01,12/28/2023,75,71.8,76.6,24
ns01,12/29/2023,75.1,68.6,78.7,24
ns01,12/30/2023,74.8,70.3,81.4,24
ns01,12/31/2023,73.8,69.9,76.3,24
ns02,1/1/2023,62.4,46.7,75,24
ns02,1/2/2023,55.1,46.9,61.7,24
ns02,1/3/2023,55.9,48.1,60.1,24
ns02,1/4/2023,55.5,46.9,59.5,24
ns02,1/5/2023,54.6,45.9,59.9,24
ns02,1/6/2023,54.1,48,60.3,24
ns02,1/7/2023,55,46.9,64.5,24
ns02,1/8/2023,54.1,48.1,63.4,24
ns02,1/9/2023,53.9,47,58.1,24
ns02,1/10/2023,52.1,47.4,56.8,24
ns02,1/11/2023,55.5,47.2,63.3,24
ns02,1/12/2023,58.7,48,66.5,24
ns02,1/13/2023,54.9,50.7,57.9,24
ns02,1/14/2023,54.7,49.5,60,24
ns02,1/15/2023,54.5,47.4,64.2,24
ns02,1/16/2023,53,48.3,56.6,24
ns02,1/17/2023,53.3,46.5,57,24
ns02,1/18/2023,53.1,45.8,57.7,24
ns02,1/19/2023,53.2,46.5,59.5,24
ns02,1/20/2023,52.6,44.8,56.8,24
ns02,1/21/2023,55.2,45.3,63.2,24
ns02,1/22/2023,52.2,45.7,57.2,24
ns02,1/23/2023,52.3,45,56.9,24
ns02,1/24/2023,53.1,45.2,58.1,24
ns02,1/25/2023,56,46.6,63,24
ns02,1/26/2023,54.9,47.8,61.6,24
ns02,1/27/2023,55.1,48.5,59.1,24
ns02,1/28/2023,57.5,47.9,64.4,24
ns02,1/29/2023,56.6,45.5,63,24
ns02,1/30/2023,51.8,45.2,56.3,24
ns02,1/31/2023,55,49.7,60.6,24
ns02,2/1/2023,58.8,50.4,64.3,24
ns02,2/2/2023,57,49.7,63.5,24
ns02,2/3/2023,58.3,47.7,63,24
ns02,2/4/2023,58.4,49.8,66.8,24
ns02,2/5/2023,59.3,48.9,66.5,24
ns02,2/6/2023,57.1,49.6,62.1,24
ns02,2/7/2023,57.8,50.6,62,24
ns02,2/8/2023,57.3,49.7,61.6,24
ns02,2/9/2023,70.2,52.1,78,24
ns02,2/10/2023,71.6,51.4,79,24
ns02,2/11/2023,64.3,48.7,71.5,24
ns02,2/12/2023,58.8,45.7,65.2,24
ns02,2/13/2023,59.4,49.1,64.7,24
ns02,2/14/2023,60.2,46.5,65,24
ns02,2/15/2023,57.9,48.9,63.6,24
ns02,2/16/2023,55.3,46.6,59.7,24
ns02,2/17/2023,55.7,46.6,60.1,24
ns02,2/18/2023,53.5,45.7,57.1,24
ns02,2/19/2023,54.6,43.4,61.3,24
ns02,2/20/2023,54.2,41.9,62.5,24
ns02,2/21/2023,53,39.2,60.1,24
ns02,2/22/2023,52.9,45.6,57.4,24
ns02,2/23/2023,52.9,48.3,57.6,24
ns02,2/24/2023,53.2,43.6,57.3,24
ns02,2/25/2023,50.8,43.4,55.1,24
ns02,2/26/2023,51.1,44.9,56.8,24
ns02,2/27/2023,52.4,44.8,57.6,24
ns02,2/28/2023,52.8,44,58.2,24
ns02,3/1/2023,53.6,46.3,58.6,24
ns02,3/2/2023,54.2,44.9,57.9,24
ns02,3/3/2023,56.7,44.6,64.2,24
ns02,3/4/2023,56.7,46.1,64,24
ns02,3/5/2023,57.4,47.6,63.3,24
ns02,3/6/2023,58.1,49.4,63.9,24
ns02,3/7/2023,58.9,49.3,65.6,24
ns02,3/8/2023,60.3,47.9,67.6,24
ns02,3/9/2023,60.4,47.6,67.5,24
ns02,3/10/2023,59.6,46.8,66.5,24
ns02,3/11/2023,60.4,47.2,66.7,24
ns02,3/12/2023,61.2,46.4,67.2,24
ns02,3/13/2023,61,43.8,67,24
ns02,3/14/2023,59.4,45.4,66.8,24
ns02,3/15/2023,59.2,46.2,67,24
ns02,3/16/2023,62.4,51.1,67.5,24
ns02,3/17/2023,62,49.4,68.1,24
ns02,3/18/2023,60.8,47.7,68.2,24
ns02,3/19/2023,58,49.3,64.9,24
ns02,3/20/2023,56,45.6,63.6,24
ns02,3/21/2023,58.2,47.2,67.5,24
ns02,3/22/2023,63.8,47.6,71.7,24
ns02,3/23/2023,58.3,48.2,67.2,24
ns02,3/24/2023,59.8,49.5,66.8,24
ns02,3/25/2023,57.6,48.7,65.7,24
ns02,3/26/2023,55.1,45.3,63.4,24
ns02,3/27/2023,59.3,45.9,66.6,24
ns02,3/28/2023,58.5,47.4,66.8,24
ns02,3/29/2023,54.9,47.8,61,24
ns02,3/30/2023,56.6,48.7,62,24
ns02,3/31/2023,57.4,51.1,63.4,24
ns02,4/1/2023,57,49.2,61.7,24
ns02,4/2/2023,56.3,45.8,61.6,24
ns02,4/3/2023,55.6,46.9,59.5,24
ns02,4/4/2023,55.7,45.4,60.5,24
ns02,4/5/2023,52.1,44.8,55,24
ns02,4/6/2023,53.9,43.2,64.8,24
ns02,4/7/2023,52.1,44.6,56.3,24
ns02,4/8/2023,59.1,44.5,71.6,24
ns02,4/9/2023,52.8,45.2,56.6,24
ns02,4/10/2023,53.7,44.4,58.8,24
ns02,4/11/2023,54.5,45,60.1,24
ns02,4/12/2023,52.2,44.2,56.6,24
ns02,4/13/2023,51.9,42.7,56.6,24
ns02,4/14/2023,51.5,45.6,55.6,24
ns02,4/15/2023,50.5,43.4,54.1,24
ns02,4/16/2023,50.4,42.4,54,24
ns02,4/17/2023,50.8,41.9,55.4,24
ns02,4/18/2023,52,42.6,56.5,24
ns02,4/19/2023,53.1,42,57.9,24
ns02,4/20/2023,51.7,42.6,55.8,24
ns02,4/21/2023,51.7,42.2,55.7,24
ns02,4/22/2023,50.6,43,54.1,24
ns02,4/23/2023,50.9,42,55.8,24
ns02,4/24/2023,50.9,42.5,56.3,24
ns02,4/25/2023,52,41.9,56.3,24
ns02,4/26/2023,53.5,45,58.6,24
ns02,4/27/2023,52.8,44.7,57.2,24
ns02,4/28/2023,52.3,44.4,56,24
ns02,4/29/2023,56.6,45.2,68.8,24
ns02,4/30/2023,55.2,43.1,64.7,24
ns02,5/1/2023,57.5,45.7,69.5,24
ns02,5/2/2023,62.7,45.9,76,24
ns02,5/3/2023,52.6,46.1,57.6,24
ns02,5/4/2023,50.4,42.6,54.5,24
ns02,5/5/2023,52.6,40.9,58.1,24
ns02,5/6/2023,61.7,42.3,72.2,24
ns02,5/7/2023,52.4,41.2,58.8,24
ns02,5/8/2023,55.8,43.4,63.3,24
ns02,5/9/2023,54.6,41.6,63.2,24
ns02,5/10/2023,56.6,51.1,64.6,24
ns02,5/11/2023,52.1,43.6,55.3,24
ns02,5/12/2023,57.8,43.7,70.1,24
ns02,5/13/2023,51.6,42.3,56.3,24
ns02,5/14/2023,58.2,42.9,69,24
ns02,5/15/2023,55,50.7,59.9,24
ns02,5/16/2023,56.3,43.9,64.8,24
ns02,5/17/2023,50,41.2,55.8,24
ns02,5/18/2023,58.8,42.6,68.5,24
ns02,5/19/2023,51.6,45.5,56.2,24
ns02,5/20/2023,50.8,45,55.8,24
ns02,5/21/2023,55.2,44.1,65.4,24
ns02,5/22/2023,53.4,45.1,58.4,24
ns02,5/23/2023,61.4,49.4,71.5,24
ns02,5/24/2023,55.2,49.8,60.9,24
ns02,5/25/2023,53.2,45.5,57.6,24
ns02,5/26/2023,51.8,42.5,56.2,24
ns02,5/27/2023,53.2,44.1,63.1,24
ns02,5/28/2023,64.2,48.2,77.1,24
ns02,5/29/2023,54.1,47,63.4,24
ns02,5/30/2023,52.9,49.6,56.2,24
ns02,5/31/2023,52.9,46,59.7,24
ns02,6/1/2023,52.7,45.8,57.3,24
ns02,6/2/2023,53.4,48.3,58.5,24
ns02,6/3/2023,51.8,47.3,56.9,24
ns02,6/4/2023,52.5,46.5,57.7,24
ns02,6/5/2023,50.3,43,53.6,24
ns02,6/6/2023,59,42.3,70.8,24
ns02,6/7/2023,58.3,46.5,67,24
ns02,6/8/2023,57.2,48.6,65.8,24
ns02,6/9/2023,54.6,49.4,63.2,24
ns02,6/10/2023,52.2,49.1,54.2,24
ns02,6/11/2023,51.1,47.9,53.3,24
ns02,6/12/2023,52.7,42.6,57.5,24
ns02,6/13/2023,55,44.1,63,24
ns02,6/14/2023,52.9,43.5,58,24
ns02,6/15/2023,59.1,46.7,69.7,24
ns02,6/16/2023,60.1,51.7,69.9,24
ns02,6/17/2023,64.5,49.6,70.6,24
ns02,6/18/2023,63.3,52.1,67.9,24
ns02,6/19/2023,60.5,50.7,69.1,24
ns02,6/20/2023,63.3,48.1,71.3,24
ns02,6/21/2023,62.4,48.1,69.6,24
ns02,6/22/2023,65.2,50,72.6,24
ns02,6/23/2023,64,49.6,71,24
ns02,6/24/2023,67,50.4,72.8,24
ns02,6/25/2023,65.2,49.4,72.6,24
ns02,6/26/2023,63.7,50.7,71.2,24
ns02,6/27/2023,62.1,48.3,69.7,24
ns02,6/28/2023,59.6,47.9,69.2,24
ns02,6/29/2023,58.8,48.8,65.7,24
ns02,6/30/2023,59.8,47.9,66.3,24
ns02,7/1/2023,55.9,45,64.4,24
ns02,7/2/2023,58.4,42.7,67.1,24
ns02,7/3/2023,60.6,47,69.5,24
ns02,7/4/2023,58.3,47.7,66.8,24
ns02,7/5/2023,55.2,47.9,64.3,24
ns02,7/6/2023,56.5,50.4,59.2,24
ns02,7/7/2023,52.8,44.5,59.2,24
ns02,7/8/2023,57.4,48.4,62.4,24
ns02,7/9/2023,53.7,45.4,58.8,24
ns02,7/10/2023,54.1,43.4,59.2,24
ns02,7/11/2023,53.4,42.5,58.6,24
ns02,7/12/2023,54.8,43.6,60.6,24
ns02,7/13/2023,58.6,47.4,70.5,24
ns02,7/14/2023,55.2,46.4,60.9,24
ns02,7/15/2023,52.2,46.7,56.5,24
ns02,7/16/2023,51.6,46.1,56.7,24
ns02,7/17/2023,52.2,44.4,55.7,24
ns02,7/18/2023,52.9,47.2,56.8,24
ns02,7/19/2023,52.6,46.3,55.9,24
ns02,7/20/2023,52.1,43.4,58.5,24
ns02,7/21/2023,52.4,40.5,61.1,24
ns02,7/22/2023,59.8,43.9,72.2,24
ns02,7/23/2023,60.6,49.9,71.7,24
ns02,7/24/2023,55.3,45.9,60.6,24
ns02,7/25/2023,52.4,44.9,58.2,24
ns02,7/26/2023,51,46.1,55.3,24
ns02,7/27/2023,51.2,46,55.2,24
ns02,7/28/2023,50.8,45.3,54.6,24
ns02,7/29/2023,50.3,45.1,55.3,24
ns02,7/30/2023,51.7,44.9,57.3,24
ns02,7/31/2023,53.7,43.3,63.7,24
ns02,8/1/2023,49.3,42.1,54.5,24
ns02,8/2/2023,57.4,43,68.4,24
ns02,8/3/2023,52.5,43.8,57,24
ns02,8/4/2023,51.5,46.1,54.4,24
ns02,8/5/2023,51.3,44.4,58.1,24
ns02,8/6/2023,52,43.7,59.4,24
ns02,8/7/2023,53.6,45.4,59.9,24
ns02,8/8/2023,54.8,45.9,62.7,24
ns02,8/9/2023,52.6,45.2,59,24
ns02,8/10/2023,52.8,46.8,57.7,24
ns02,8/11/2023,53.3,50.3,58.1,24
ns02,8/12/2023,56.4,46.6,66.1,24
ns02,8/13/2023,59.8,48.7,70.6,24
ns02,8/14/2023,53.3,46.2,59.6,24
ns02,8/15/2023,50.7,46.3,54.2,24
ns02,8/16/2023,57.5,43.2,68.7,24
ns02,8/17/2023,57,45.5,69.3,24
ns02,8/18/2023,53.5,43.2,62.6,24
ns02,8/19/2023,57.4,45.2,68.5,24
ns02,8/20/2023,50.5,45.6,56.3,24
ns02,8/21/2023,51.4,44,58.3,24
ns02,8/22/2023,51.7,44.9,56.6,24
ns02,8/23/2023,51.6,43.6,56.5,24
ns02,8/24/2023,52,45.1,55.7,24
ns02,8/25/2023,57.1,44.9,69.3,24
ns02,8/26/2023,54.2,48.4,62.5,24
ns02,8/27/2023,57.8,48.6,65.9,24
ns02,8/28/2023,52.1,46.8,56.1,24
ns02,8/29/2023,51,44.7,59.4,24
ns02,8/30/2023,50.1,43.1,53.6,24
ns02,8/31/2023,56.5,42.3,64.4,24
ns02,9/1/2023,56.3,48.4,63.6,24
ns02,9/2/2023,62.1,46.3,72.9,24
ns02,9/3/2023,54.2,46.3,60.5,24
ns02,9/4/2023,59.1,47.2,71.9,24
ns02,9/5/2023,57.3,48.5,65.7,24
ns02,9/6/2023,51.1,46.5,58.4,24
ns02,9/7/2023,50.6,45.7,53.9,24
ns02,9/8/2023,52.7,48.5,59,24
ns02,9/9/2023,49.3,47.1,52.9,24
ns02,9/10/2023,58.1,45.4,67.9,24
ns02,9/11/2023,55.7,46.5,62.7,24
ns02,9/12/2023,52.5,44.4,58.3,24
ns02,9/13/2023,52,42.8,57.9,24
ns02,9/14/2023,54.4,43.5,65.4,24
ns02,9/15/2023,56.8,41.7,64.8,24
ns02,9/16/2023,55.1,47.1,61.9,24
ns02,9/17/2023,52.9,47,61.1,24
ns02,9/18/2023,55.1,48.3,62.5,24
ns02,9/19/2023,54.2,43.8,61.5,24
ns02,9/20/2023,53.8,42.9,63.2,24
ns02,9/21/2023,56.7,45.2,63.2,24
ns02,9/22/2023,54.8,46.6,60.7,24
ns02,9/23/2023,55.3,44.6,64.5,24
ns02,9/24/2023,49.3,43.4,57.5,24
ns02,9/25/2023,53.2,43,62,24
ns02,9/26/2023,52.2,45,61.3,24
ns02,9/27/2023,62.6,46.4,73.1,24
ns02,9/28/2023,56.5,46,63.3,24
ns02,9/29/2023,57.9,44.3,67.7,24
ns02,9/30/2023,54,45.6,65.7,24
ns02,10/1/2023,49.7,43.3,56.7,24
ns02,10/2/2023,54.9,46.6,61.6,24
ns02,10/3/2023,63.7,42.7,74,24
ns02,10/4/2023,64,49.8,76,24
ns02,10/5/2023,57.6,45.9,69.5,24
ns02,10/6/2023,55.1,48.3,61.6,24
ns02,10/7/2023,54.2,45.4,62.1,24
ns02,10/8/2023,55.9,47.3,62.4,24
ns02,10/9/2023,56.6,48.3,61.5,24
ns02,10/10/2023,56.3,44.8,66.7,24
ns02,10/11/2023,55,48.1,60,24
ns02,10/12/2023,54.3,45.4,59.8,24
ns02,10/13/2023,48.6,43.8,52.4,24
ns02,10/14/2023,51.1,45.7,55.8,24
ns02,10/15/2023,49.7,45,54.2,24
ns02,10/16/2023,50.9,43,57.7,24
ns02,10/17/2023,51.3,43.1,58.9,24
ns02,10/18/2023,51.2,43.8,57.7,24
ns02,10/19/2023,51.9,43.6,60.6,24
ns02,10/20/2023,55.2,43.4,63.7,24
ns02,10/21/2023,47.9,40.7,50.8,24
ns02,10/22/2023,48.7,43.7,53.3,24
ns02,10/23/2023,48.5,44.1,53.5,24
ns02,10/24/2023,51.4,44.1,57.7,24
ns02,10/25/2023,50.3,41.7,56.7,24
ns02,10/26/2023,51.7,45.6,58.8,24
ns02,10/27/2023,55.3,46.7,64.6,24
ns02,10/28/2023,53.9,47.3,63.6,24
ns02,10/29/2023,54.2,46.2,65.3,24
ns02,10/30/2023,54.5,45.1,60.3,24
ns02,10/31/2023,52.6,44.2,59.5,24
ns02,11/1/2023,53.4,41.4,60.1,24
ns02,11/2/2023,51.2,42,57.5,24
ns02,11/3/2023,55.3,44.9,66.2,24
ns02,11/4/2023,48.6,43.7,51.4,24
ns02,11/5/2023,68.9,37.7,79.6,24
ns02,11/6/2023,61,34.4,70.7,24
ns02,11/7/2023,52.8,45.2,61,24
ns02,11/8/2023,51.7,43.8,60,24
ns02,11/9/2023,54.2,43.3,61.3,24
ns02,11/10/2023,54,44.2,62.5,24
ns02,11/11/2023,70.7,41,83,24
ns02,11/12/2023,65.6,41.9,75,24
ns02,11/13/2023,70.4,38,80.2,24
ns02,11/14/2023,53,42.4,63.4,24
ns02,11/15/2023,55.2,42.7,64.2,24
ns02,11/16/2023,69,41.5,79.4,24
ns02,11/17/2023,55.9,47.6,64,24
ns02,11/18/2023,60.8,46.6,70.7,24
ns02,11/19/2023,55.6,38.9,65,24
ns02,11/20/2023,57,48.8,62.7,24
ns02,11/21/2023,61,46.1,69.3,24
ns02,11/22/2023,61.7,44.1,70.5,24
ns02,11/23/2023,54.8,41.7,64.1,24
ns02,11/24/2023,53,43.3,58,24
ns02,11/25/2023,51.3,42,54.2,24
ns02,11/26/2023,48.7,42.5,55.2,24
ns02,11/27/2023,53.8,40.2,60.3,24
ns02,11/28/2023,52.2,43.6,57.4,24
ns02,11/29/2023,53.3,43.6,61,24
ns02,11/30/2023,53.1,45.1,61.5,24
ns02,12/1/2023,54.4,40,61.7,24
ns02,12/2/2023,49.1,43.4,52.2,24
ns02,12/3/2023,49.6,43.9,53.5,24
ns02,12/4/2023,52.6,41.6,61.5,24
ns02,12/5/2023,49.8,39.8,58.4,24
ns02,12/6/2023,52.2,44.4,60.3,24
ns02,12/7/2023,53.5,40.9,61.2,24
ns02,12/8/2023,55.6,37.7,65.9,24
ns02,12/9/2023,54.5,45.8,66.5,24
ns02,12/10/2023,52.5,46,62.8,24
ns02,12/11/2023,51.4,45.4,58,24
ns02,12/12/2023,52.2,44.1,58.7,24
ns02,12/13/2023,52.4,38,60.2,24
ns02,12/14/2023,53.9,43.4,62.1,24
ns02,12/15/2023,53.9,43.5,61.5,24
ns02,12/16/2023,51.2,46.8,55.5,24
ns02,12/17/2023,48.1,44.4,51.9,24
ns02,12/18/2023,54.1,45.1,63.3,24